TimePDT,TemperatureF,Dew PointF,Humidity,Sea Level PressureIn,VisibilityMPH,Wind Direction,Wind SpeedMPH,Gust SpeedMPH,PrecipitationIn,Events,Conditions,WindDirDegrees,DateUTC
12:56 AM,50.0,24.1,36,30.10,10.0,SW,8.1,-,N/A,,Clear,220,2013-03-12 07:56:00
1:56 AM,45.0,25.0,46,30.11,10.0,Calm,Calm,-,N/A,,Clear,0,2013-03-12 08:56:00
2:56 AM,45.0,25.0,46,30.10,10.0,WSW,6.9,-,N/A,,Clear,240,2013-03-12 09:56:00
3:56 AM,43.0,26.1,51,30.09,10.0,SSW,8.1,-,N/A,,Clear,200,2013-03-12 10:56:00
4:56 AM,42.1,25.0,51,30.10,10.0,WSW,3.5,-,N/A,,Clear,240,2013-03-12 11:56:00
5:56 AM,39.9,24.1,53,30.11,10.0,WSW,3.5,-,N/A,,Clear,240,2013-03-12 12:56:00
6:56 AM,37.0,25.0,62,30.14,10.0,SE,4.6,-,N/A,,Clear,130,2013-03-12 13:56:00
7:56 AM,43.0,27.0,53,30.16,10.0,Calm,Calm,-,N/A,,Clear,0,2013-03-12 14:56:00
8:56 AM,50.0,24.1,36,30.17,10.0,Calm,Calm,-,N/A,,Clear,0,2013-03-12 15:56:00
9:56 AM,60.1,19.9,21,30.18,10.0,Calm,Calm,-,N/A,,Partly Cloudy,0,2013-03-12 16:56:00
10:56 AM,64.9,23.0,20,30.17,10.0,North,3.5,-,N/A,,Partly Cloudy,10,2013-03-12 17:56:00
11:56 AM,71.1,15.1,12,30.15,10.0,SE,6.9,-,N/A,,Partly Cloudy,140,2013-03-12 18:56:00
12:56 PM,73.0,12.0,10,30.13,10.0,Variable,3.5,-,N/A,,Partly Cloudy,0,2013-03-12 19:56:00
1:56 PM,75.9,12.9,9,30.10,10.0,Variable,3.5,-,N/A,,Clear,0,2013-03-12 20:56:00
2:56 PM,77.0,14.0,9,30.09,10.0,Variable,4.6,-,N/A,,Clear,0,2013-03-12 21:56:00
3:56 PM,80.1,14.0,8,30.07,10.0,SE,5.8,-,N/A,,Clear,140,2013-03-12 22:56:00
4:56 PM,79.0,14.0,9,30.06,10.0,East,3.5,-,N/A,,Clear,100,2013-03-12 23:56:00
5:56 PM,79.0,15.1,9,30.05,10.0,East,4.6,-,N/A,,Clear,80,2013-03-13 00:56:00
6:56 PM,73.9,16.0,11,30.08,10.0,ENE,5.8,-,N/A,,Clear,70,2013-03-13 01:56:00
7:56 PM,64.0,19.9,18,30.10,10.0,SSE,3.5,-,N/A,,Clear,150,2013-03-13 02:56:00
8:56 PM,60.1,23.0,24,30.13,10.0,SW,5.8,-,N/A,,Clear,220,2013-03-13 03:56:00
9:56 PM,57.9,24.1,27,30.14,10.0,SSW,8.1,-,N/A,,Clear,210,2013-03-13 04:56:00
10:56 PM,54.0,25.0,33,30.16,10.0,South,8.1,-,N/A,,Clear,190,2013-03-13 05:56:00
11:56 PM,55.0,25.0,31,30.15,10.0,SW,8.1,-,N/A,,Clear,220,2013-03-13 06:56:00